Location: Arbon
(43.0005°N, 0.7472°E)
Time: 11:46:20
(UTC+00:00)

Cosmos 1862 - Pass Details

Date: 22 April 2026
Orbit: 465 x 478 km, 82.5° (Epoch: 15 May)

Event Time Altitude Azimuth Distance (km) Brightness Sun altitude
Rises 21:19:00 0° 355° (N) 2,531 7.5 -24.0°
Reaches altitude 10° 21:21:07 10° 358° (N) 1,645 6.4 -24.3°
Enters shadow 21:23:19 34° 12° (NNE) 799 4.4 -24.6°
